Time,TemperatureF,DewpointF,PressureIn,WindDirection,WindDirectionDegrees,WindSpeedMPH,WindSpeedGustMPH,Humidity,HourlyPrecipIn,Conditions,Clouds,dailyrainin,SoftwareType,DateUTC
2013-01-19 00:00:00,18.8,6.4,30.11,WNW,293,0.0,0.0,58,0.00,,,0.00,WUHU216HW,2013-01-19 05:00:00,
2013-01-19 00:03:00,18.8,6.4,30.11,WNW,293,0.0,0.0,58,0.00,,,0.00,WUHU216HW,2013-01-19 05:03:00,
2013-01-19 00:08:00,19.2,6.7,30.12,WNW,293,0.0,0.0,58,0.00,,,0.00,WUHU216HW,2013-01-19 05:08:00,
2013-01-19 00:13:00,19.2,6.7,30.11,WNW,293,0.0,0.0,58,0.00,,,0.00,WUHU216HW,2013-01-19 05:13:00,
2013-01-19 00:18:00,19.4,6.9,30.11,WNW,293,0.0,0.0,58,0.00,,,0.00,WUHU216HW,2013-01-19 05:18:00,
2013-01-19 00:23:00,19.5,7.0,30.11,WNW,293,0.0,0.0,58,0.00,,,0.00,WUHU216HW,2013-01-19 05:23:00,
2013-01-19 00:28:00,19.5,7.0,30.11,WNW,293,0.0,0.0,58,0.00,,,0.00,WUHU216HW,2013-01-19 05:28:00,
2013-01-19 00:33:00,19.5,7.0,30.11,WNW,293,0.0,0.0,58,0.00,,,0.00,WUHU216HW,2013-01-19 05:33:00,
2013-01-19 00:38:00,19.7,6.8,30.11,WNW,293,0.0,0.0,57,0.00,,,0.00,WUHU216HW,2013-01-19 05:38:00,
2013-01-19 00:43:00,19.9,7.4,30.11,SW,225,0.0,0.0,58,0.00,,,0.00,WUHU216HW,2013-01-19 05:43:00,
2013-01-19 00:48:00,20.1,7.6,30.10,West,270,1.5,1.5,58,0.00,,,0.00,WUHU216HW,2013-01-19 05:48:00,
2013-01-19 00:53:00,20.3,7.7,30.10,West,270,0.0,1.5,58,0.00,,,0.00,WUHU216HW,2013-01-19 05:53:00,
2013-01-19 00:59:00,20.6,8.1,30.10,West,270,0.0,6.0,58,0.00,,,0.00,WUHU216HW,2013-01-19 05:59:00,
2013-01-19 01:04:00,21.2,8.6,30.09,West,270,0.0,6.0,58,0.00,,,0.00,WUHU216HW,2013-01-19 06:04:00,
2013-01-19 01:09:00,21.5,8.9,30.08,WSW,248,4.4,4.4,58,0.00,,,0.00,WUHU216HW,2013-01-19 06:09:00,
2013-01-19 01:14:00,21.9,9.3,30.09,West,270,4.2,4.4,58,0.00,,,0.00,WUHU216HW,2013-01-19 06:14:00,
2013-01-19 01:19:00,22.2,9.6,30.09,West,270,0.0,7.1,58,0.00,,,0.00,WUHU216HW,2013-01-19 06:19:00,
2013-01-19 01:24:00,22.8,9.7,30.09,WSW,248,4.0,7.1,57,0.00,,,0.00,WUHU216HW,2013-01-19 06:24:00,
2013-01-19 01:29:00,22.8,9.7,30.08,WNW,293,1.7,4.0,57,0.00,,,0.00,WUHU216HW,2013-01-19 06:29:00,
2013-01-19 01:34:00,23.0,9.9,30.08,SSE,158,3.5,5.8,57,0.00,,,0.00,WUHU216HW,2013-01-19 06:34:00,
2013-01-19 01:39:00,23.1,10.0,30.08,West,270,4.4,5.8,57,0.00,,,0.00,WUHU216HW,2013-01-19 06:39:00,
2013-01-19 01:44:00,23.1,10.0,30.08,West,270,0.0,4.4,57,0.00,,,0.00,WUHU216HW,2013-01-19 06:44:00,
2013-01-19 01:49:00,23.3,10.2,30.08,West,270,0.0,4.4,57,0.00,,,0.00,WUHU216HW,2013-01-19 06:49:00,
2013-01-19 01:54:00,23.3,10.0,30.09,WNW,293,2.2,7.3,57,0.00,,,0.00,WUHU216HW,2013-01-19 06:54:00,
2013-01-19 01:59:00,23.5,10.0,30.08,West,270,0.0,7.3,56,0.00,,,0.00,WUHU216HW,2013-01-19 06:59:00,
2013-01-19 02:05:00,23.5,10.0,30.07,West,270,0.0,2.2,56,0.00,,,0.00,WUHU216HW,2013-01-19 07:05:00,
2013-01-19 02:10:00,23.5,10.4,30.07,WNW,293,0.0,5.5,57,0.00,,,0.00,WUHU216HW,2013-01-19 07:10:00,
2013-01-19 02:15:00,23.5,10.4,30.06,West,270,0.0,5.5,57,0.00,,,0.00,WUHU216HW,2013-01-19 07:15:00,
2013-01-19 02:20:00,23.7,10.6,30.06,West,270,0.8,0.8,57,0.00,,,0.00,WUHU216HW,2013-01-19 07:20:00,
2013-01-19 02:25:00,23.7,10.6,30.06,West,270,0.0,0.8,57,0.00,,,0.00,WUHU216HW,2013-01-19 07:25:00,
2013-01-19 02:30:00,23.9,10.7,30.05,WSW,248,2.6,2.6,57,0.00,,,0.00,WUHU216HW,2013-01-19 07:30:00,
2013-01-19 02:35:00,23.9,10.7,30.05,North,0,0.0,2.6,57,0.00,,,0.00,WUHU216HW,2013-01-19 07:35:00,
2013-01-19 02:40:00,24.0,10.9,30.05,WSW,248,0.0,2.6,57,0.00,,,0.00,WUHU216HW,2013-01-19 07:40:00,
2013-01-19 02:45:00,24.0,11.3,30.04,West,270,0.0,4.4,58,0.00,,,0.00,WUHU216HW,2013-01-19 07:45:00,
2013-01-19 02:50:00,24.0,11.3,30.04,SSW,203,0.0,4.4,58,0.00,,,0.00,WUHU216HW,2013-01-19 07:50:00,
2013-01-19 02:55:00,24.0,11.3,30.04,WNW,293,4.6,4.6,58,0.00,,,0.00,WUHU216HW,2013-01-19 07:55:00,
2013-01-19 03:00:00,24.0,11.3,30.04,SE,135,1.3,4.6,58,0.00,,,0.00,WUHU216HW,2013-01-19 08:00:00,
2013-01-19 03:05:00,24.4,12.1,30.04,West,270,0.0,1.3,59,0.00,,,0.00,WUHU216HW,2013-01-19 08:05:00,
2013-01-19 03:10:00,24.4,12.1,30.04,WSW,248,5.3,5.3,59,0.00,,,0.00,WUHU216HW,2013-01-19 08:10:00,
2013-01-19 03:15:00,24.6,12.3,30.04,SW,225,1.5,5.3,59,0.00,,,0.00,WUHU216HW,2013-01-19 08:15:00,
2013-01-19 03:20:00,24.8,12.5,30.04,WNW,293,0.0,6.2,59,0.00,,,0.00,WUHU216HW,2013-01-19 08:20:00,
2013-01-19 03:25:00,24.9,12.2,30.03,West,270,4.2,6.2,58,0.00,,,0.00,WUHU216HW,2013-01-19 08:25:00,
2013-01-19 03:31:00,24.9,12.2,30.03,WNW,293,0.0,4.2,58,0.00,,,0.00,WUHU216HW,2013-01-19 08:31:00,
2013-01-19 03:36:00,25.1,12.8,30.03,WSW,248,4.2,4.2,59,0.00,,,0.00,WUHU216HW,2013-01-19 08:36:00,
2013-01-19 03:41:00,25.3,12.9,30.03,WSW,248,1.7,4.2,59,0.00,,,0.00,WUHU216HW,2013-01-19 08:41:00,
2013-01-19 03:46:00,25.3,12.9,30.02,West,270,0.0,4.2,59,0.00,,,0.00,WUHU216HW,2013-01-19 08:46:00,
2013-01-19 03:51:00,25.5,13.1,30.02,West,270,2.0,3.8,59,0.00,,,0.00,WUHU216HW,2013-01-19 08:51:00,
2013-01-19 03:56:00,25.5,13.1,30.02,West,270,1.1,4.4,59,0.00,,,0.00,WUHU216HW,2013-01-19 08:56:00,
2013-01-19 04:01:00,25.5,13.1,30.02,West,270,2.9,4.4,59,0.00,,,0.00,WUHU216HW,2013-01-19 09:01:00,
2013-01-19 04:10:00,25.5,13.1,30.02,West,270,2.9,2.9,59,0.00,,,0.00,WUHU216HW,2013-01-19 09:10:00,
2013-01-19 04:15:00,25.3,13.4,30.01,West,270,0.0,2.9,60,0.00,,,0.00,WUHU216HW,2013-01-19 09:15:00,
2013-01-19 04:20:00,25.3,13.4,30.00,South,180,0.0,2.9,60,0.00,,,0.00,WUHU216HW,2013-01-19 09:20:00,
2013-01-19 04:25:00,25.3,13.4,29.99,West,270,0.6,0.6,60,0.00,,,0.00,WUHU216HW,2013-01-19 09:25:00,
2013-01-19 04:30:00,25.3,13.4,29.99,SSW,203,0.0,21.6,60,0.00,,,0.00,WUHU216HW,2013-01-19 09:30:00,
2013-01-19 04:35:00,25.5,13.5,29.99,West,270,0.0,21.6,60,0.00,,,0.00,WUHU216HW,2013-01-19 09:35:00,
2013-01-19 04:40:00,25.5,13.5,29.99,West,270,4.0,4.0,60,0.00,,,0.00,WUHU216HW,2013-01-19 09:40:00,
2013-01-19 04:46:00,25.7,13.7,29.99,WNW,293,2.6,4.0,60,0.00,,,0.00,WUHU216HW,2013-01-19 09:46:00,
2013-01-19 04:51:00,25.7,13.7,29.99,WSW,248,0.0,2.6,60,0.00,,,0.00,WUHU216HW,2013-01-19 09:51:00,
2013-01-19 04:56:00,25.7,13.7,29.98,West,270,0.0,0.0,60,0.00,,,0.00,WUHU216HW,2013-01-19 09:56:00,
2013-01-19 05:01:00,25.7,13.7,29.98,West,270,0.0,0.0,60,0.00,,,0.00,WUHU216HW,2013-01-19 10:01:00,
2013-01-19 05:10:00,25.7,13.7,29.98,West,270,0.0,0.0,60,0.00,,,0.00,WUHU216HW,2013-01-19 10:10:00,
2013-01-19 05:15:00,26.2,14.5,29.98,WSW,248,3.5,3.5,61,0.00,,,0.00,WUHU216HW,2013-01-19 10:15:00,
2013-01-19 05:20:00,26.4,14.7,29.98,WSW,248,2.0,3.5,61,0.00,,,0.00,WUHU216HW,2013-01-19 10:20:00,
2013-01-19 05:25:00,26.4,14.7,29.97,SSE,158,0.0,2.0,61,0.00,,,0.00,WUHU216HW,2013-01-19 10:25:00,
2013-01-19 05:30:00,26.6,14.9,29.98,West,270,0.6,2.0,61,0.00,,,0.00,WUHU216HW,2013-01-19 10:30:00,
2013-01-19 05:35:00,26.7,15.4,29.97,SSE,158,0.0,4.6,62,0.00,,,0.00,WUHU216HW,2013-01-19 10:35:00,
2013-01-19 05:40:00,26.9,15.6,29.97,SW,225,0.0,4.6,62,0.00,,,0.00,WUHU216HW,2013-01-19 10:40:00,
2013-01-19 05:45:00,26.9,15.6,29.96,WNW,293,2.0,2.0,62,0.00,,,0.00,WUHU216HW,2013-01-19 10:45:00,
2013-01-19 05:50:00,27.1,15.8,29.96,WSW,248,0.0,7.1,62,0.00,,,0.00,WUHU216HW,2013-01-19 10:50:00,
2013-01-19 05:55:00,27.1,15.8,29.96,West,270,0.0,7.1,62,0.00,,,0.00,WUHU216HW,2013-01-19 10:55:00,
2013-01-19 06:01:00,27.3,15.9,29.96,WSW,248,3.8,3.8,62,0.00,,,0.00,WUHU216HW,2013-01-19 11:01:00,
2013-01-19 06:10:00,27.3,15.9,29.96,WSW,248,3.8,3.8,62,0.00,,,0.00,WUHU216HW,2013-01-19 11:10:00,
2013-01-19 06:14:00,27.6,16.3,29.97,West,270,2.4,3.8,62,0.00,,,0.00,WUHU216HW,2013-01-19 11:14:00,
2013-01-19 06:20:00,27.6,16.3,29.97,West,270,2.6,6.9,62,0.00,,,0.00,WUHU216HW,2013-01-19 11:20:00,
2013-01-19 06:27:00,28.0,16.7,29.96,WSW,248,0.0,2.6,62,0.00,,,0.00,WUHU216HW,2013-01-19 11:27:00,
2013-01-19 06:33:00,28.0,16.7,29.96,WSW,248,0.0,6.4,62,0.00,,,0.00,WUHU216HW,2013-01-19 11:33:00,
2013-01-19 06:40:00,28.0,16.7,29.95,SSW,203,0.0,0.0,62,0.00,,,0.00,WUHU216HW,2013-01-19 11:40:00,
2013-01-19 06:46:00,28.0,16.7,29.95,West,270,0.0,5.3,62,0.00,,,0.00,WUHU216HW,2013-01-19 11:46:00,
2013-01-19 06:53:00,28.0,16.7,29.95,West,270,0.0,5.3,62,0.00,,,0.00,WUHU216HW,2013-01-19 11:53:00,
2013-01-19 06:59:00,28.0,16.7,29.94,WNW,293,6.7,6.7,62,0.00,,,0.00,WUHU216HW,2013-01-19 11:59:00,
2013-01-19 07:06:00,28.2,16.8,29.94,WSW,248,0.0,6.7,62,0.00,,,0.00,WUHU216HW,2013-01-19 12:06:00,
2013-01-19 07:12:00,28.2,16.8,29.94,West,270,1.1,2.2,62,0.00,,,0.00,WUHU216HW,2013-01-19 12:12:00,
2013-01-19 07:19:00,28.5,17.2,29.95,SW,225,1.5,4.0,62,0.00,,,0.00,WUHU216HW,2013-01-19 12:19:00,
2013-01-19 07:25:00,28.7,17.3,29.94,West,270,0.0,1.7,62,0.00,,,0.00,WUHU216HW,2013-01-19 12:25:00,
2013-01-19 07:32:00,29.1,17.7,29.94,West,270,0.0,8.7,62,0.00,,,0.00,WUHU216HW,2013-01-19 12:32:00,
2013-01-19 07:38:00,29.1,18.0,29.94,SW,225,0.0,4.4,63,0.00,,,0.00,WUHU216HW,2013-01-19 12:38:00,
2013-01-19 07:44:00,29.4,18.0,29.94,SW,225,0.0,2.0,62,0.00,,,0.00,WUHU216HW,2013-01-19 12:44:00,
2013-01-19 07:47:00,29.4,18.0,29.94,SW,225,0.0,2.0,62,0.00,,,0.00,WUHU216HW,2013-01-19 12:47:00,
2013-01-19 07:48:00,29.4,18.0,29.94,SW,225,0.6,2.0,62,0.00,,,0.00,WUHU216HW,2013-01-19 12:48:00,
2013-01-19 07:53:00,29.6,18.5,29.94,West,270,0.0,6.4,63,0.00,,,0.00,WUHU216HW,2013-01-19 12:53:00,
2013-01-19 07:58:00,29.8,18.7,29.93,West,270,0.0,6.4,63,0.00,,,0.00,WUHU216HW,2013-01-19 12:58:00,
2013-01-19 08:03:00,30.0,18.8,29.94,WSW,248,0.6,2.6,63,0.00,,,0.00,WUHU216HW,2013-01-19 13:03:00,
2013-01-19 08:08:00,30.0,18.8,29.93,SW,225,0.0,2.6,63,0.00,,,0.00,WUHU216HW,2013-01-19 13:08:00,
2013-01-19 08:13:00,30.3,19.2,29.93,SW,225,1.7,4.9,63,0.00,,,0.00,WUHU216HW,2013-01-19 13:13:00,
2013-01-19 08:18:00,30.5,19.4,29.93,West,270,0.0,4.9,63,0.00,,,0.00,WUHU216HW,2013-01-19 13:18:00,
2013-01-19 08:23:00,30.9,19.7,29.93,South,180,2.0,6.0,63,0.00,,,0.00,WUHU216HW,2013-01-19 13:23:00,
2013-01-19 08:28:00,31.4,19.9,29.93,SW,225,6.4,6.4,62,0.00,,,0.00,WUHU216HW,2013-01-19 13:28:00,
2013-01-19 08:33:00,31.6,20.1,29.93,WSW,248,6.7,6.7,62,0.00,,,0.00,WUHU216HW,2013-01-19 13:33:00,
2013-01-19 08:38:00,31.8,20.3,29.93,SSW,203,4.2,6.7,62,0.00,,,0.00,WUHU216HW,2013-01-19 13:38:00,
2013-01-19 08:43:00,32.3,20.8,29.93,SW,225,4.2,6.7,62,0.00,,,0.00,WUHU216HW,2013-01-19 13:43:00,
2013-01-19 08:48:00,32.5,20.9,29.94,SW,225,6.2,6.2,62,0.00,,,0.00,WUHU216HW,2013-01-19 13:48:00,
2013-01-19 08:54:00,33.0,21.4,29.94,WSW,248,0.0,6.2,62,0.00,,,0.00,WUHU216HW,2013-01-19 13:54:00,
2013-01-19 08:59:00,33.6,21.9,29.94,West,270,1.1,9.6,62,0.00,,,0.00,WUHU216HW,2013-01-19 13:59:00,
2013-01-19 09:04:00,34.1,22.1,29.94,West,270,8.2,9.6,61,0.00,,,0.00,WUHU216HW,2013-01-19 14:04:00,
2013-01-19 09:09:00,34.3,22.2,29.94,WSW,248,7.6,8.2,61,0.00,,,0.00,WUHU216HW,2013-01-19 14:09:00,
2013-01-19 09:14:00,34.8,22.8,29.93,West,270,2.2,7.6,61,0.00,,,0.00,WUHU216HW,2013-01-19 14:14:00,
2013-01-19 09:19:00,34.8,22.8,29.93,West,270,5.5,6.0,61,0.00,,,0.00,WUHU216HW,2013-01-19 14:19:00,
2013-01-19 09:24:00,35.4,23.0,29.93,West,270,2.2,8.2,60,0.00,,,0.00,WUHU216HW,2013-01-19 14:24:00,
2013-01-19 09:29:00,35.4,23.0,29.93,West,270,2.9,8.2,60,0.00,,,0.00,WUHU216HW,2013-01-19 14:29:00,
2013-01-19 09:34:00,35.7,23.3,29.92,West,270,1.3,3.8,60,0.00,,,0.00,WUHU216HW,2013-01-19 14:34:00,
2013-01-19 09:39:00,36.3,23.8,29.92,SW,225,3.8,6.0,60,0.00,,,0.00,WUHU216HW,2013-01-19 14:39:00,
2013-01-19 09:44:00,36.3,23.3,29.92,West,270,1.7,6.0,59,0.00,,,0.00,WUHU216HW,2013-01-19 14:44:00,
2013-01-19 09:49:00,36.6,23.7,29.92,SW,225,5.8,5.8,59,0.00,,,0.00,WUHU216HW,2013-01-19 14:49:00,
2013-01-19 09:55:00,37.0,24.0,29.92,SW,225,0.0,6.4,59,0.00,,,0.00,WUHU216HW,2013-01-19 14:55:00,
2013-01-19 10:00:00,37.0,24.0,29.92,WSW,248,0.0,6.4,59,0.00,,,0.00,WUHU216HW,2013-01-19 15:00:00,
2013-01-19 10:05:00,37.2,23.7,29.92,WSW,248,6.4,6.4,58,0.00,,,0.00,WUHU216HW,2013-01-19 15:05:00,
2013-01-19 10:10:00,37.2,23.7,29.92,WSW,248,2.6,7.8,58,0.00,,,0.00,WUHU216HW,2013-01-19 15:10:00,
2013-01-19 10:15:00,37.2,23.7,29.91,WSW,248,0.0,7.8,58,0.00,,,0.00,WUHU216HW,2013-01-19 15:15:00,
2013-01-19 10:20:00,37.5,24.0,29.91,West,270,6.9,6.9,58,0.00,,,0.00,WUHU216HW,2013-01-19 15:20:00,
2013-01-19 10:22:00,37.5,24.0,29.91,South,180,6.7,6.9,58,0.00,,,0.00,WUHU216HW,2013-01-19 15:22:00,
2013-01-19 10:27:00,37.7,24.2,29.90,WSW,248,5.3,6.9,58,0.00,,,0.00,WUHU216HW,2013-01-19 15:27:00,
2013-01-19 10:33:00,37.9,24.4,29.90,South,180,3.3,6.4,58,0.00,,,0.00,WUHU216HW,2013-01-19 15:33:00,
2013-01-19 10:39:00,38.3,24.1,29.90,WNW,293,0.6,6.4,57,0.00,,,0.00,WUHU216HW,2013-01-19 15:39:00,
2013-01-19 10:44:00,38.4,24.4,29.89,North,0,4.6,6.0,57,0.00,,,0.00,WUHU216HW,2013-01-19 15:44:00,
2013-01-19 10:50:00,38.8,24.3,29.88,West,270,7.1,8.9,56,0.00,,,0.00,WUHU216HW,2013-01-19 15:50:00,
2013-01-19 10:55:00,38.8,24.3,29.88,West,270,6.4,8.9,56,0.00,,,0.00,WUHU216HW,2013-01-19 15:55:00,
2013-01-19 11:01:00,39.3,24.8,29.88,WNW,293,3.3,6.7,56,0.00,,,0.00,WUHU216HW,2013-01-19 16:01:00,
2013-01-19 11:06:00,39.3,24.4,29.88,WSW,248,2.0,6.7,55,0.00,,,0.00,WUHU216HW,2013-01-19 16:06:00,
2013-01-19 11:12:00,39.5,24.6,29.87,West,270,2.0,8.7,55,0.00,,,0.00,WUHU216HW,2013-01-19 16:12:00,
2013-01-19 11:17:00,39.7,24.7,29.87,WSW,248,2.9,8.7,55,0.00,,,0.00,WUHU216HW,2013-01-19 16:17:00,
2013-01-19 11:23:00,40.1,25.1,29.85,WSW,248,3.1,6.4,55,0.00,,,0.00,WUHU216HW,2013-01-19 16:23:00,
2013-01-19 11:28:00,40.2,24.8,29.85,WNW,293,1.7,5.8,54,0.00,,,0.00,WUHU216HW,2013-01-19 16:28:00,
2013-01-19 11:34:00,40.6,25.1,29.85,WNW,293,11.4,11.4,54,0.00,,,0.00,WUHU216HW,2013-01-19 16:34:00,
2013-01-19 11:39:00,40.8,24.8,29.84,West,270,6.9,11.4,53,0.00,,,0.00,WUHU216HW,2013-01-19 16:39:00,
2013-01-19 11:43:00,40.8,24.8,29.84,West,270,6.9,11.4,53,0.00,,,0.00,WUHU216HW,2013-01-19 16:43:00,
2013-01-19 11:48:00,41.0,25.0,29.83,WSW,248,3.1,8.5,53,0.00,,,0.00,WUHU216HW,2013-01-19 16:48:00,
2013-01-19 11:53:00,41.0,25.0,29.83,SW,225,7.3,8.5,53,0.00,,,0.00,WUHU216HW,2013-01-19 16:53:00,
2013-01-19 11:58:00,41.1,25.2,29.83,West,270,8.2,8.2,53,0.00,,,0.00,WUHU216HW,2013-01-19 16:58:00,
2013-01-19 12:03:00,41.1,25.2,29.82,West,270,0.0,8.2,53,0.00,,,0.00,WUHU216HW,2013-01-19 17:03:00,
2013-01-19 12:08:00,41.1,24.7,29.82,West,270,4.0,6.0,52,0.00,,,0.00,WUHU216HW,2013-01-19 17:08:00,
2013-01-19 12:13:00,41.3,24.9,29.82,WSW,248,2.4,6.0,52,0.00,,,0.00,WUHU216HW,2013-01-19 17:13:00,
2013-01-19 12:18:00,41.5,25.1,29.81,WSW,248,6.0,6.0,52,0.00,,,0.00,WUHU216HW,2013-01-19 17:18:00,
2013-01-19 12:24:00,41.5,25.1,29.80,West,270,6.2,6.2,52,0.00,,,0.00,WUHU216HW,2013-01-19 17:24:00,
2013-01-19 12:29:00,41.7,25.3,29.80,West,270,7.3,7.3,52,0.00,,,0.00,WUHU216HW,2013-01-19 17:29:00,
2013-01-19 12:35:00,41.9,25.0,29.80,West,270,5.1,8.0,51,0.00,,,0.00,WUHU216HW,2013-01-19 17:35:00,
2013-01-19 12:40:00,41.9,25.5,29.80,WSW,248,1.5,8.0,52,0.00,,,0.00,WUHU216HW,2013-01-19 17:40:00,
2013-01-19 12:46:00,42.0,25.2,29.80,WNW,293,9.3,9.3,51,0.00,,,0.00,WUHU216HW,2013-01-19 17:46:00,
2013-01-19 12:51:00,42.0,25.2,29.80,West,270,4.6,9.3,51,0.00,,,0.00,WUHU216HW,2013-01-19 17:51:00,
2013-01-19 12:57:00,42.0,25.2,29.79,West,270,1.7,5.5,51,0.00,,,0.00,WUHU216HW,2013-01-19 17:57:00,
2013-01-19 13:02:00,42.4,25.5,29.79,West,270,3.3,5.5,51,0.00,,,0.00,WUHU216HW,2013-01-19 18:02:00,
2013-01-19 13:08:00,42.6,25.7,29.79,West,270,7.3,7.3,51,0.00,,,0.00,WUHU216HW,2013-01-19 18:08:00,
2013-01-19 13:13:00,42.9,26.1,29.78,West,270,7.1,7.3,51,0.00,,,0.00,WUHU216HW,2013-01-19 18:13:00,
2013-01-19 13:18:00,43.1,26.2,29.78,WNW,293,4.2,7.3,51,0.00,,,0.00,WUHU216HW,2013-01-19 18:18:00,
2013-01-19 13:24:00,43.5,26.6,29.78,SE,135,0.0,4.9,51,0.00,,,0.00,WUHU216HW,2013-01-19 18:24:00,
2013-01-19 13:29:00,43.8,25.9,29.78,SSW,203,5.3,6.9,49,0.00,,,0.00,WUHU216HW,2013-01-19 18:29:00,
2013-01-19 13:34:00,44.2,26.2,29.78,WSW,248,2.9,6.9,49,0.00,,,0.00,WUHU216HW,2013-01-19 18:34:00,
2013-01-19 13:39:00,44.4,25.8,29.78,West,270,2.4,7.1,48,0.00,,,0.00,WUHU216HW,2013-01-19 18:39:00,
2013-01-19 13:45:00,44.7,26.2,29.78,WSW,248,4.6,7.1,48,0.00,,,0.00,WUHU216HW,2013-01-19 18:45:00,
2013-01-19 13:50:00,44.9,26.3,29.77,WSW,248,7.3,8.2,48,0.00,,,0.00,WUHU216HW,2013-01-19 18:50:00,
2013-01-19 13:55:00,45.1,26.0,29.76,West,270,7.3,8.2,47,0.00,,,0.00,WUHU216HW,2013-01-19 18:55:00,
2013-01-19 14:00:00,45.3,26.1,29.76,SSE,158,6.0,7.3,47,0.00,,,0.00,WUHU216HW,2013-01-19 19:00:00,
2013-01-19 14:05:00,45.3,25.6,29.75,SW,225,0.0,6.9,46,0.00,,,0.00,WUHU216HW,2013-01-19 19:05:00,
2013-01-19 14:10:00,45.5,25.7,29.76,West,270,8.0,8.0,46,0.00,,,0.00,WUHU216HW,2013-01-19 19:10:00,
2013-01-19 14:16:00,45.6,25.9,29.77,NW,315,6.2,8.0,46,0.00,,,0.00,WUHU216HW,2013-01-19 19:16:00,
2013-01-19 14:21:00,45.6,25.9,29.77,West,270,1.1,7.1,46,0.00,,,0.00,WUHU216HW,2013-01-19 19:21:00,
2013-01-19 14:27:00,45.6,25.9,29.76,WNW,293,10.5,10.5,46,0.00,,,0.00,WUHU216HW,2013-01-19 19:27:00,
2013-01-19 14:32:00,45.5,25.7,29.76,WSW,248,6.2,10.5,46,0.00,,,0.00,WUHU216HW,2013-01-19 19:32:00,
2013-01-19 14:37:00,45.3,25.6,29.75,West,270,6.0,10.5,46,0.00,,,0.00,WUHU216HW,2013-01-19 19:37:00,
2013-01-19 14:42:00,45.3,25.6,29.76,West,270,6.4,7.6,46,0.00,,,0.00,WUHU216HW,2013-01-19 19:42:00,
2013-01-19 14:47:00,45.3,25.6,29.76,WNW,293,10.2,10.2,46,0.00,,,0.00,WUHU216HW,2013-01-19 19:47:00,
2013-01-19 14:53:00,45.1,25.4,29.76,SSW,203,3.5,10.2,46,0.00,,,0.00,WUHU216HW,2013-01-19 19:53:00,
2013-01-19 14:58:00,45.1,25.4,29.76,SSW,203,2.9,6.9,46,0.00,,,0.00,WUHU216HW,2013-01-19 19:58:00,
2013-01-19 15:04:00,45.1,25.4,29.75,West,270,2.4,4.2,46,0.00,,,0.00,WUHU216HW,2013-01-19 20:04:00,
2013-01-19 15:09:00,45.1,26.0,29.75,NW,315,10.2,11.4,47,0.00,,,0.00,WUHU216HW,2013-01-19 20:09:00,
2013-01-19 15:14:00,44.9,25.8,29.75,West,270,7.3,11.4,47,0.00,,,0.00,WUHU216HW,2013-01-19 20:14:00,
2013-01-19 15:19:00,44.9,25.8,29.75,SSW,203,6.2,10.2,47,0.00,,,0.00,WUHU216HW,2013-01-19 20:19:00,
2013-01-19 15:24:00,44.9,25.8,29.76,WSW,248,1.7,9.8,47,0.00,,,0.00,WUHU216HW,2013-01-19 20:24:00,
2013-01-19 15:29:00,44.9,25.8,29.76,West,270,2.4,2.4,47,0.00,,,0.00,WUHU216HW,2013-01-19 20:29:00,
2013-01-19 15:34:00,44.9,25.8,29.76,WSW,248,6.2,6.2,47,0.00,,,0.00,WUHU216HW,2013-01-19 20:34:00,
2013-01-19 15:39:00,44.9,25.8,29.75,SW,225,8.2,8.2,47,0.00,,,0.00,WUHU216HW,2013-01-19 20:39:00,
2013-01-19 15:45:00,44.7,25.6,29.76,SW,225,5.3,8.2,47,0.00,,,0.00,WUHU216HW,2013-01-19 20:45:00,
2013-01-19 15:50:00,44.4,25.3,29.75,WSW,248,0.0,7.8,47,0.00,,,0.00,WUHU216HW,2013-01-19 20:50:00,
2013-01-19 15:55:00,44.4,25.3,29.75,WNW,293,11.4,11.4,47,0.00,,,0.00,WUHU216HW,2013-01-19 20:55:00,
2013-01-19 16:00:00,44.4,25.8,29.76,West,270,3.1,11.4,48,0.00,,,0.00,WUHU216HW,2013-01-19 21:00:00,
2013-01-19 16:05:00,44.2,25.7,29.76,WSW,248,2.6,10.0,48,0.00,,,0.00,WUHU216HW,2013-01-19 21:05:00,
2013-01-19 16:10:00,43.7,25.2,29.75,WNW,293,0.0,3.5,48,0.00,,,0.00,WUHU216HW,2013-01-19 21:10:00,
2013-01-19 16:16:00,43.3,25.4,29.75,WNW,293,3.8,8.9,49,0.00,,,0.00,WUHU216HW,2013-01-19 21:16:00,
2013-01-19 16:21:00,43.1,25.3,29.76,SW,225,2.4,8.9,49,0.00,,,0.00,WUHU216HW,2013-01-19 21:21:00,
2013-01-19 16:26:00,42.6,25.3,29.76,SW,225,3.5,8.2,50,0.00,,,0.00,WUHU216HW,2013-01-19 21:26:00,
2013-01-19 16:32:00,42.6,25.3,29.76,SW,225,1.3,3.5,50,0.00,,,0.00,WUHU216HW,2013-01-19 21:32:00,
2013-01-19 16:37:00,42.4,24.8,29.75,West,270,3.8,3.8,50,0.00,,,0.00,WUHU216HW,2013-01-19 21:37:00,
2013-01-19 16:42:00,42.0,24.8,29.75,WSW,248,6.0,6.0,50,0.00,,,0.00,WUHU216HW,2013-01-19 21:42:00,
2013-01-19 16:48:00,41.7,24.8,29.75,West,270,7.3,7.3,51,0.00,,,0.00,WUHU216HW,2013-01-19 21:48:00,
2013-01-19 16:53:00,41.5,24.6,29.76,West,270,0.6,7.3,51,0.00,,,0.00,WUHU216HW,2013-01-19 21:53:00,
2013-01-19 16:58:00,41.5,24.6,29.76,West,270,2.4,7.3,51,0.00,,,0.00,WUHU216HW,2013-01-19 21:58:00,
2013-01-19 17:03:00,41.0,24.6,29.75,WNW,293,0.0,6.7,52,0.00,,,0.00,WUHU216HW,2013-01-19 22:03:00,
2013-01-19 17:09:00,40.6,24.8,29.76,WNW,293,0.0,6.7,53,0.00,,,0.00,WUHU216HW,2013-01-19 22:09:00,
2013-01-19 17:14:00,40.4,24.5,29.75,West,270,1.1,1.1,53,0.00,,,0.00,WUHU216HW,2013-01-19 22:14:00,
2013-01-19 17:19:00,40.2,24.3,29.75,West,270,3.1,3.1,53,0.00,,,0.00,WUHU216HW,2013-01-19 22:19:00,
2013-01-19 17:25:00,40.1,24.6,29.75,West,270,2.2,3.1,54,0.00,,,0.00,WUHU216HW,2013-01-19 22:25:00,
2013-01-19 17:30:00,39.9,24.4,29.75,West,270,2.0,3.1,54,0.00,,,0.00,WUHU216HW,2013-01-19 22:30:00,
2013-01-19 17:35:00,39.9,24.4,29.76,West,270,0.0,4.4,54,0.00,,,0.00,WUHU216HW,2013-01-19 22:35:00,
2013-01-19 17:40:00,39.9,24.4,29.75,West,270,0.0,4.4,54,0.00,,,0.00,WUHU216HW,2013-01-19 22:40:00,
2013-01-19 17:45:00,39.7,24.7,29.75,West,270,3.1,3.3,55,0.00,,,0.00,WUHU216HW,2013-01-19 22:45:00,
2013-01-19 17:50:00,39.7,24.7,29.75,WSW,248,0.0,3.3,55,0.00,,,0.00,WUHU216HW,2013-01-19 22:50:00,
2013-01-19 17:55:00,39.7,24.7,29.75,West,270,2.4,3.1,55,0.00,,,0.00,WUHU216HW,2013-01-19 22:55:00,
2013-01-19 18:00:00,39.7,24.7,29.76,West,270,7.8,7.8,55,0.00,,,0.00,WUHU216HW,2013-01-19 23:00:00,
2013-01-19 18:06:00,39.7,24.7,29.75,West,270,0.0,7.8,55,0.00,,,0.00,WUHU216HW,2013-01-19 23:06:00,
2013-01-19 18:11:00,39.7,24.7,29.75,West,270,6.9,7.8,55,0.00,,,0.00,WUHU216HW,2013-01-19 23:11:00,
2013-01-19 18:17:00,39.7,24.7,29.75,West,270,2.0,6.9,55,0.00,,,0.00,WUHU216HW,2013-01-19 23:17:00,
2013-01-19 18:22:00,39.5,24.6,29.75,West,270,0.0,2.0,55,0.00,,,0.00,WUHU216HW,2013-01-19 23:22:00,
2013-01-19 18:27:00,39.3,24.4,29.76,West,270,5.3,5.3,55,0.00,,,0.00,WUHU216HW,2013-01-19 23:27:00,
2013-01-19 18:32:00,39.3,24.4,29.75,West,270,0.0,5.3,55,0.00,,,0.00,WUHU216HW,2013-01-19 23:32:00,
2013-01-19 18:37:00,39.0,24.0,29.75,WSW,248,0.0,5.3,56,0.00,,,0.00,WUHU216HW,2013-01-19 23:37:00,
2013-01-19 18:42:00,39.0,24.5,29.76,West,270,0.0,0.4,56,0.00,,,0.00,WUHU216HW,2013-01-19 23:42:00,
2013-01-19 18:47:00,39.0,24.5,29.76,West,270,0.0,3.3,56,0.00,,,0.00,WUHU216HW,2013-01-19 23:47:00,
2013-01-19 18:53:00,39.0,24.5,29.75,West,270,1.5,3.3,56,0.00,,,0.00,WUHU216HW,2013-01-19 23:53:00,
2013-01-19 18:58:00,38.8,24.3,29.75,West,270,0.0,2.0,56,0.00,,,0.00,WUHU216HW,2013-01-19 23:58:00,
2013-01-19 19:03:00,38.8,24.3,29.75,West,270,0.0,2.0,56,0.00,,,0.00,WUHU216HW,2013-01-20 00:03:00,
2013-01-19 19:08:00,38.4,24.0,29.75,West,270,0.0,0.0,56,0.00,,,0.00,WUHU216HW,2013-01-20 00:08:00,
2013-01-19 19:13:00,38.4,24.4,29.75,West,270,0.0,1.7,57,0.00,,,0.00,WUHU216HW,2013-01-20 00:13:00,
2013-01-19 19:19:00,38.3,24.3,29.75,West,270,0.0,1.7,57,0.00,,,0.00,WUHU216HW,2013-01-20 00:19:00,
2013-01-19 19:24:00,37.9,24.1,29.75,West,270,0.0,0.0,57,0.00,,,0.00,WUHU216HW,2013-01-20 00:24:00,
2013-01-19 19:29:00,37.9,23.9,29.75,West,270,0.0,0.0,57,0.00,,,0.00,WUHU216HW,2013-01-20 00:29:00,
2013-01-19 19:34:00,37.5,24.0,29.75,West,270,0.0,0.0,58,0.00,,,0.00,WUHU216HW,2013-01-20 00:34:00,
2013-01-19 19:39:00,37.2,23.7,29.75,West,270,0.0,1.1,58,0.00,,,0.00,WUHU216HW,2013-01-20 00:39:00,
2013-01-19 19:44:00,37.2,23.7,29.75,West,270,0.0,1.1,58,0.00,,,0.00,WUHU216HW,2013-01-20 00:44:00,
2013-01-19 19:49:00,37.0,24.0,29.75,West,270,0.0,3.1,59,0.00,,,0.00,WUHU216HW,2013-01-20 00:49:00,
2013-01-19 19:54:00,36.8,24.3,29.75,West,270,0.0,3.1,60,0.00,,,0.00,WUHU216HW,2013-01-20 00:54:00,
2013-01-19 19:59:00,36.8,24.3,29.75,West,270,0.0,1.3,60,0.00,,,0.00,WUHU216HW,2013-01-20 00:59:00,
2013-01-19 20:04:00,36.6,24.5,29.75,West,270,0.0,0.0,61,0.00,,,0.00,WUHU216HW,2013-01-20 01:04:00,
2013-01-19 20:09:00,36.5,24.3,29.75,West,270,0.0,0.0,61,0.00,,,0.00,WUHU216HW,2013-01-20 01:09:00,
2013-01-19 20:11:00,36.5,24.3,29.75,West,270,0.0,0.0,61,0.00,,,0.00,WUHU216HW,2013-01-20 01:11:00,
2013-01-19 20:14:00,36.3,24.1,29.75,West,270,0.0,0.0,61,0.00,,,0.00,WUHU216HW,2013-01-20 01:14:00,
2013-01-19 20:19:00,36.1,24.0,29.75,West,270,0.0,0.0,61,0.00,,,0.00,WUHU216HW,2013-01-20 01:19:00,
2013-01-19 20:24:00,36.1,24.3,29.74,West,270,0.0,0.0,62,0.00,,,0.00,WUHU216HW,2013-01-20 01:24:00,
2013-01-19 20:29:00,36.1,24.3,29.74,West,270,0.0,0.0,62,0.00,,,0.00,WUHU216HW,2013-01-20 01:29:00,
2013-01-19 20:35:00,35.9,24.5,29.74,West,270,0.0,0.0,63,0.00,,,0.00,WUHU216HW,2013-01-20 01:35:00,
2013-01-19 20:40:00,35.7,24.4,29.74,West,270,0.0,0.0,63,0.00,,,0.00,WUHU216HW,2013-01-20 01:40:00,
2013-01-19 20:45:00,35.4,24.0,29.73,West,270,0.0,0.0,63,0.00,,,0.00,WUHU216HW,2013-01-20 01:45:00,
2013-01-19 20:50:00,35.2,24.2,29.73,West,270,0.0,0.0,64,0.00,,,0.00,WUHU216HW,2013-01-20 01:50:00,
2013-01-19 20:55:00,35.2,24.2,29.73,West,270,0.0,0.0,64,0.00,,,0.00,WUHU216HW,2013-01-20 01:55:00,
2013-01-19 21:01:00,34.8,23.9,29.73,West,270,0.0,0.0,64,0.00,,,0.00,WUHU216HW,2013-01-20 02:01:00,
2013-01-19 21:06:00,34.8,24.2,29.72,West,270,0.0,0.0,65,0.00,,,0.00,WUHU216HW,2013-01-20 02:06:00,
2013-01-19 21:11:00,34.7,24.0,29.72,West,270,0.0,0.0,65,0.00,,,0.00,WUHU216HW,2013-01-20 02:11:00,
2013-01-19 21:16:00,34.7,24.4,29.72,West,270,0.0,0.0,66,0.00,,,0.00,WUHU216HW,2013-01-20 02:16:00,
2013-01-19 21:21:00,34.7,24.4,29.72,West,270,0.0,0.0,66,0.00,,,0.00,WUHU216HW,2013-01-20 02:21:00,
2013-01-19 21:26:00,34.8,25.3,29.72,West,270,0.0,0.0,68,0.00,,,0.00,WUHU216HW,2013-01-20 02:26:00,
2013-01-19 21:32:00,35.2,25.7,29.71,West,270,0.0,0.0,68,0.00,,,0.00,WUHU216HW,2013-01-20 02:32:00,
2013-01-19 21:37:00,35.4,26.2,29.70,West,270,0.0,0.0,69,0.00,,,0.00,WUHU216HW,2013-01-20 02:37:00,
2013-01-19 21:42:00,35.7,26.2,29.71,West,270,0.0,0.0,69,0.00,,,0.00,WUHU216HW,2013-01-20 02:42:00,
2013-01-19 21:47:00,35.7,26.5,29.70,West,270,0.0,0.0,69,0.00,,,0.00,WUHU216HW,2013-01-20 02:47:00,
2013-01-19 21:53:00,35.7,26.5,29.70,West,270,0.0,0.0,69,0.00,,,0.00,WUHU216HW,2013-01-20 02:53:00,
2013-01-19 21:58:00,35.9,26.7,29.70,West,270,0.0,0.0,69,0.00,,,0.00,WUHU216HW,2013-01-20 02:58:00,
2013-01-19 22:03:00,35.9,26.7,29.69,West,270,0.0,0.0,69,0.00,,,0.00,WUHU216HW,2013-01-20 03:03:00,
2013-01-19 22:08:00,35.9,26.7,29.69,West,270,0.0,0.0,69,0.00,,,0.00,WUHU216HW,2013-01-20 03:08:00,
2013-01-19 22:13:00,35.9,27.1,29.69,West,270,0.0,0.0,70,0.00,,,0.00,WUHU216HW,2013-01-20 03:13:00,
2013-01-19 22:18:00,36.1,27.3,29.69,West,270,0.0,0.0,70,0.00,,,0.00,WUHU216HW,2013-01-20 03:18:00,
2013-01-19 22:23:00,36.1,27.3,29.69,West,270,0.0,0.0,70,0.00,,,0.00,WUHU216HW,2013-01-20 03:23:00,
2013-01-19 22:28:00,36.3,27.5,29.69,West,270,0.0,0.0,70,0.00,,,0.00,WUHU216HW,2013-01-20 03:28:00,
2013-01-19 22:33:00,36.3,27.5,29.69,West,270,0.0,0.0,70,0.00,,,0.00,WUHU216HW,2013-01-20 03:33:00,
2013-01-19 22:38:00,36.3,27.5,29.68,West,270,0.0,0.0,70,0.00,,,0.00,WUHU216HW,2013-01-20 03:38:00,
2013-01-19 22:44:00,36.3,27.5,29.67,West,270,0.0,0.0,70,0.00,,,0.00,WUHU216HW,2013-01-20 03:44:00,
2013-01-19 22:49:00,36.1,27.3,29.67,West,270,0.0,0.0,70,0.00,,,0.00,WUHU216HW,2013-01-20 03:49:00,
2013-01-19 22:54:00,36.1,27.3,29.67,West,270,0.0,0.0,70,0.00,,,0.00,WUHU216HW,2013-01-20 03:54:00,
2013-01-19 22:59:00,35.9,27.1,29.67,West,270,0.0,0.0,70,0.00,,,0.00,WUHU216HW,2013-01-20 03:59:00,
2013-01-19 23:04:00,35.7,26.9,29.67,West,270,0.0,0.0,70,0.00,,,0.00,WUHU216HW,2013-01-20 04:04:00,
2013-01-19 23:10:00,35.7,26.9,29.66,West,270,0.0,0.0,70,0.00,,,0.00,WUHU216HW,2013-01-20 04:10:00,
2013-01-19 23:14:00,35.4,26.6,29.66,West,270,0.0,0.0,70,0.00,,,0.00,WUHU216HW,2013-01-20 04:14:00,
2013-01-19 23:20:00,35.4,26.9,29.65,West,270,0.0,0.0,71,0.00,,,0.00,WUHU216HW,2013-01-20 04:20:00,
2013-01-19 23:25:00,35.4,26.9,29.65,West,270,0.0,0.0,71,0.00,,,0.00,WUHU216HW,2013-01-20 04:25:00,
2013-01-19 23:30:00,35.4,26.9,29.65,West,270,0.0,0.0,71,0.00,,,0.00,WUHU216HW,2013-01-20 04:30:00,
2013-01-19 23:35:00,35.4,26.9,29.65,West,270,0.0,0.0,71,0.00,,,0.00,WUHU216HW,2013-01-20 04:35:00,
2013-01-19 23:40:00,35.4,27.2,29.65,West,270,0.0,0.0,72,0.00,,,0.00,WUHU216HW,2013-01-20 04:40:00,
2013-01-19 23:45:00,35.4,27.2,29.64,West,270,0.0,0.0,72,0.00,,,0.00,WUHU216HW,2013-01-20 04:45:00,
2013-01-19 23:50:00,35.4,27.2,29.64,West,270,0.0,0.0,72,0.00,,,0.00,WUHU216HW,2013-01-20 04:50:00,
2013-01-19 23:55:00,35.7,27.6,29.63,West,270,0.0,0.0,72,0.00,,,0.00,WUHU216HW,2013-01-20 04:55:00,